Tracking 33200 objects as of 18-Feb-2026
HD Live streaming from Space Station
objects crossing your sky now

STARLINK-5571

Track STARLINK-5571 now!
10-day predictions
STARLINK-5571 is classified as:


NORAD ID: 55380
Int'l Code: 2023-013BB
Perigee: 565.4 km
Apogee: 567.0 km
Inclination: 43.0 °
Period: 95.8 minutes
Semi major axis: 6937 km
RCS: Unknown
Launch date: January 26, 2023
Source: United States (US)
Launch site: AIR FORCE EASTERN TEST RANGE (AFETR)
Your satellite tracking list
Your tracking list is empty




NASA's NSSDC Master Catalog

Two Line Element Set (TLE):
1 55380U 23013BB  26048.02600410  .00000136  00000-0  25111-4 0  9997
2 55380  43.0043  39.3775 0001115 259.5994 100.4722 15.02540530168750
Source of the keplerian elements: AFSPC